Regional Weather Roundup
Issued by NWS Green Bay, WI

Home | Current Version | Previous Version | Text Only | Print | Product List | Glossary On
Versions: 1 2 3 4 5 6 7 8 9 10 11 12 13 14 15 16 17 18 19 20 21 22 23 24 25 26 27 28 29 30 31 32 33 34 35 36 37 38 39 40 41 42 43 44 45 46 47 48 49 50
000
ASUS43 KGRB 021759
RWRGRB

NORTH-CENTRAL AND NORTHEAST WISCONSIN REGIONAL WEATHER ROUNDUP
NATIONAL WEATHER SERVICE GREEN BAY WI
100 PM CDT TUE SEP 02 2014

WIZ005-009-010>012-018-019-021900-
NORTH CENTRAL WISCONSIN

CITY           SKY/WX    TMP DP  RH WIND       PRES   REMARKS
IRONWOOD       NOT AVBL
MANITOWISH WTR NOT AVBL
ARBOR VITAE    NOT AVBL
EAGLE RIVER    NOT AVBL
LAND O LAKES   NOT AVBL
RHINELANDER    SUNNY     71  51  49 W10       29.88S
PHILLIPS       NOT AVBL
ANTIGO         NOT AVBL
TOMAHAWK       NOT AVBL
MERRILL        NOT AVBL
$$

WIZ013-073-021900-
NORTHEAST WISCONSIN

CITY           SKY/WX    TMP DP  RH WIND       PRES   REMARKS
IRON MOUNTAIN  PTSUNNY   73  54  51 NW9       29.83S
MARINETTE      CLOUDY    66  59  77 W8        29.84S
$$

WIZ017-030-035>037-045-021900-
CENTRAL WISCONSIN

CITY           SKY/WX    TMP DP  RH WIND       PRES   REMARKS
MEDFORD        NOT AVBL
WAUSAU         MOSUNNY   73  56  54 W9G16     29.87S
MOSINEE        NOT AVBL
MARSHFIELD     PTSUNNY   74  60  61 W12       29.89S
WISC RAPIDS    MOSUNNY   75  57  53 W7        29.91S
STEVENS POINT  NOT AVBL
WAUPACA        NOT AVBL
SHAWANO        MOSUNNY   74  61  64 W7        29.87F
CLINTONVILLE   NOT AVBL
$$

WIZ038-039-048-051-021900-
FOX VALLEY

CITY           SKY/WX    TMP DP  RH WIND       PRES   REMARKS
NWS GREEN BAY  PTSUNNY   70  60  70 SW8       29.87S
APPLETON       PTSUNNY   72  61  68 SW7       29.89S
OSHKOSH        MOSUNNY   75  61  61 W9        29.88F
FOND DU LAC    MOSUNNY   75  59  57 W9        29.89F
$$

WIZ022-050-052-021900-
EAST CENTRAL WISCONSIN

CITY           SKY/WX    TMP DP  RH WIND       PRES   REMARKS
STURGEON BAY   CLOUDY    64  59  82 NW3       29.87S
MANITOWOC      NOT AVBL
SHEBOYGAN      PTSUNNY   74  61  63 W12       29.89S
$$

LMZ563-521-522-541>543-021900-
LAKESHORE

STATION/POSITION TIME  TEMP    WIND        PRES    VSBY  WAVE
                       AIR SEA DIR/SP/G                  HT/PER
                 (UTC) (F)     (DEG/KT/KT) (MB)    (MI)  (FT/S)
SHEBOYGAN LKSHOR 1700   72 50  240/ 10/ 11 1012.0R
KEWAUNEE LKSHORE 1700   69     280/  3/  5 1010.7F
NORTHPORT PIER   1700   66     260/  5/  8 1010.5F
N MID LAKE BUOY  1700   65 65  220/ 10/ 12 1010.4F         1/ 5
CHAMBERS ISLAND  1700   66     210/  7/ 14 1010.8R
MENOMINEE LKSHOR 1700   65     230/  7/ 12 1011.2F
$$



USA.gov is the U.S. government's official web portal to all federal, state and local government web resources and services.